Regional Weather Roundup
Issued by NWS

Home | Current Version | Previous Version | Text Only | Print | Product List | Glossary Off
Versions: 1 2 3 4 5 6 7 8 9 10 11 12 13 14 15 16 17 18 19 20 21 22 23 24 25 26 27 28 29 30 31 32 33 34 35 36 37 38 39 40 41 42 43 44 45 46 47 48 49 50

000
ASUS43 KDTX 101901
RWRMI
MICHIGAN HOURLY REGIONAL WEATHER ROUNDUP
NATIONAL WEATHER SERVICE DETROIT/PONTIAC MI
300 PM EDT THU JUL 10 2014

NOTE: "FAIR" INDICATES FEW OR NO CLOUDS BELOW 12,000 FEET WITH NO
SIGNIFICANT WEATHER AND/OR OBSTRUCTION TO VISIBILITY.

MIZ047>049-052>055-059>063-066>070-074>076-081>083-102000-
SOUTHEAST LOWER MICHIGAN

CITY           SKY/WX    TMP DP  RH WIND       PRES   REMARKS
ADRIAN         MOSUNNY   77  54  44 N9        30.17S
ALMA           SUNNY     71  44  37 CALM      30.20S
ANN ARBOR      MOSUNNY   76  55  48 NW7       30.16F
BAD AXE        SUNNY     68  53  59 N7        30.20F
CARO           MOSUNNY   74  57  55 NW8       30.18F
DETROIT CITY   CLOUDY    75  55  49 SE6       30.16S
DETROIT        PTSUNNY   74  57  55 E6        30.16S
FLINT          PTSUNNY   73  53  49 N6        30.18S
GROSSE ILE     CLOUDY    73  59  60 S8        30.15S
HILLSDALE      SUNNY     74  53  49 CALM      30.18F
HOWELL         PTSUNNY   72  54  53 N3        30.18S

CITY           SKY/WX    TMP DP  RH WIND       PRES   REMARKS
JACKSON        MOSUNNY   75  53  46 W3        30.18F
LAMBERTVILLE   MOSUNNY   77  55  47 SE5       30.16S
LANSING        MOSUNNY   73  52  47 NE3       30.19S
LAPEER         MOCLDY    72  54  52 N5        30.18F
MASON          MOSUNNY   69  53  56 CALM      30.19S
MONROE         MOSUNNY   73  57  56 SE6       30.14F
MT. CLEMENS    PTSUNNY   72  59  63 SE7       30.15F
PONTIAC        PTSUNNY   75  53  46 N6        30.16F
PORT HOPE        N/A     62  51  67 NE7       30.21S
PORT HURON     CLOUDY    70  57  64 NE8       30.18S
TRI CITIES     SUNNY     73  51  46 NE5       30.20F
TROY           CLOUDY    73  54  50 N6        30.17S
SAGINAW HB     SUNNY     72  48  43 CALM      30.19S
$$
MIZ043>046-050>051-056>058-064>065-071>073-077>080-102000-
SOUTHWEST LOWER MICHIGAN

CITY           SKY/WX    TMP DP  RH WIND       PRES   REMARKS
BATTLE CREEK   PTSUNNY   75  52  44 N7        30.19F
BENTON HARBOR  SUNNY     70  50  49 VRB6      30.19F
BIG RAPIDS     PTSUNNY   72  48  42 CALM      30.19S
COLDWATER      MOSUNNY   73  55  52 CALM      30.18F
FREMONT        MOCLDY    73  47  39 N5        30.18F
HOLLAND        PTSUNNY   73  57  57 NW9       30.20S
GRAND RAPIDS   MOSUNNY   75  53  46 CALM      30.19F
IONIA          FAIR      69  51  52 CALM      30.19S
KALAMAZOO      PTSUNNY   72  53  51 VRB3      30.19F
LUDINGTON      SUNNY     72  49  43 W7        30.20S
MARSHALL       PTSUNNY   73  55  53 CALM      30.18S
MOUNT PLEASANT SUNNY     71  48  43 W5        30.19F
MUSKEGON       MOSUNNY   73  53  49 W10       30.19F
SOUTH HAVEN    SUNNY     72  57  60 NW7       30.19F
$$
MIZ016>042-102000-
NORTHERN LOWER MICHIGAN

CITY           SKY/WX    TMP DP  RH WIND       PRES   REMARKS
ALPENA         SUNNY     71  49  45 E10       30.19S
BEAVER ISLAND  SUNNY     68  51  54 SW8       30.20S
BELLAIRE       SUNNY     72  46  39 W5        30.18F
CADILLAC       SUNNY     70  45  41 CALM      30.19F
CHARLEVOIX     SUNNY     67  50  53 N7        30.23S
FRANKFORT      SUNNY     71  50  46 W9        30.19F
GAYLORD        SUNNY     70  43  37 VRB5      30.19F
GRAYLING       SUNNY     73  42  33 N3        30.19F
HARBOR SPRINGS SUNNY     69  47  44 SW6       30.18F
HOUGHTON LAKE  SUNNY     70  45  40 SW9       30.20F
MANISTEE       SUNNY     72  46  40 NW10      30.20S
OSCODA         SUNNY     67  48  49 E7        30.20F
PELLSTON       CLOUDY    70  47  43 NW3       30.19S
ROGERS CITY    SUNNY     65  51  62 NE6       30.20S
TRAVERSE CITY  MOSUNNY   71  46  40 NE8       30.18F
$$
MIZ007>008-015-102000-
EASTERN UPPER MICHIGAN

CITY           SKY/WX    TMP DP  RH WIND       PRES   REMARKS
KINROSS        PTSUNNY   72  48  43 SW8       30.17S
MACKINAC ISLAN SUNNY     65  49  56 W6        30.19F
NEWBERRY       PTSUNNY   68  52  56 S8G20     30.17R
S. S. MARIE    SUNNY     71  46  40 SW5       30.16F
$$
MIZ004>006-011>014-085-102000-
CENTRAL UPPER MICHIGAN

CITY           SKY/WX    TMP DP  RH WIND       PRES   REMARKS
MANISTIQUE     SUNNY     64  54  70 S9        30.19S
ESCANABA       SUNNY     66  55  68 S17       30.16F
MENOMINEE      SUNNY     72  55  56 S14       30.15F
SAWYER-GWINN   MOSUNNY   72  45  37 SW13G18   30.14S
$$
MIZ001>003-009>011-084-102000-
WESTERN UPPER MICHIGAN

CITY           SKY/WX    TMP DP  RH WIND       PRES   REMARKS
IRON MOUNTAIN  PTSUNNY   75  50  41 SW10      30.13F
HOUGHTON       PTSUNNY   73  48  41 N7        30.10S
COPPER HARBOR    N/A     66  48  52 E5        30.11S
$$

ABBREVIATIONS USED IN REMARKS
   TC - TEMPERATURE IN CELSIUS
  WCI - WIND CHILL INDEX
   HX - HEAT INDEX
  VSB - VISIBILITY




USA.gov is the U.S. government's official web portal to all federal, state and local government web resources and services.